Regional Weather Roundup
Issued by NWS

Home | Current Version | Previous Version | Graphics & Text | Print | Product List | Glossary On
Versions: 1 2 3 4 5 6 7 8 9 10 11 12 13 14 15 16 17 18 19 20 21 22 23 24 25 26 27 28 29 30 31 32 33 34 35 36 37 38 39 40 41 42 43 44 45 46 47 48 49 50
000
ASUS43 KLSX 310307
RWRMO

WEATHER SUMMARY FOR MISSOURI
NATIONAL WEATHER SERVICE SPRINGFIELD MO
1000 PM CDT WED JUL 30 2014

NOTE: "FAIR" INDICATES FEW OR NO CLOUDS BELOW 12,000 FEET WITH NO
       SIGNIFICANT WEATHER AND/OR OBSTRUCTIONS TO VISIBILITY.
       CURRENT SKY AND/OR WEATHER CONDITIONS ARE NOT AVAILABLE FOR
       CHILLICOTHE AND FARMINGTON.

MOZ001>031-035>038-043-044-053-054-310400-
...NORTHERN AND WESTERN MISSOURI...

CITY           SKY/WX    TMP DP  RH WIND       PRES   REMARKS
KANSAS CTY INT PTCLDY    69  57  65 N7        30.09R
KANSAS C DTWN  CLEAR     72  56  57 S3        30.08R
LEE`S SUMMIT   PTCLDY    69  61  75 W3        30.09R
ST JOSEPH      CLEAR     65  60  84 NW5       30.09R
CHILLICOTHE      N/A     65  59  81 CALM      30.09R
KIRKSVILLE     CLEAR     62  59  90 CALM      30.10R

$$
MOZ066>068-077>081-088>096-101>105-310400-
...SOUTHWEST MISSOURI...

CITY           SKY/WX    TMP DP  RH WIND       PRES   REMARKS
SPRINGFIELD    CLOUDY    67  65  93 S5        30.08S
JOPLIN         CLOUDY    66  65  96 E3        30.09R

$$
MOZ032>034-039>042-045>050-055>058-069>072-310400-
...CENTRAL MISSOURI...

CITY           SKY/WX    TMP DP  RH WIND       PRES   REMARKS
COLUMBIA       MOCLDY    70  59  68 W3        30.08R
JEFFERSON CITY MOCLDY    72  59  63 CALM      30.06R
ROLLA          CLOUDY    64  60  87 W3        30.07R
SEDALIA        MOCLDY    69  60  73 CALM      30.09R
WHITEMAN AFB   PTCLDY    68  55  61 SW2       30.08R
OSAGE BEACH    CLOUDY    64  61  88 CALM      30.08R

$$
MOZ051-052-059>065-310400-
...EAST CENTRAL MISSOURI...

CITY           SKY/WX    TMP DP  RH WIND       PRES   REMARKS
ST LOUIS INTL  MOCLDY    75  57  53 E3        30.07R
SPIRIT OF STL  MOCLDY    68  59  73 CALM      30.05R
ST CHARLES     PTCLDY    65  61  87 N3        30.05R

$$
MOZ072>076-082>087-097>100-106>115-310400-
...SOUTH CENTRAL AND SOUTHEAST MISSOURI...

CITY           SKY/WX    TMP DP  RH WIND       PRES   REMARKS
CAPE GIRARDEAU CLOUDY    66  63  90 CALM      30.07R
FARMINGTON     CLOUDY    66  63  88 CALM      30.10R
POPLAR BLUFF   CLOUDY    70  63  78 SW3       30.05S
WEST PLAINS    LGT RAIN  67  65  93 CALM      30.10R

$$


USA.gov is the U.S. government's official web portal to all federal, state and local government web resources and services.